Regional Weather Roundup
Issued by NWS Lake Charles, LA

Home | Current Version | Previous Version | Text Only | Print | Product List | Glossary On
Versions: 1 2 3 4 5 6 7 8 9 10 11 12 13 14 15 16 17 18 19 20 21 22 23 24 25 26 27 28 29 30 31 32 33 34 35 36 37 38 39 40 41 42 43 44 45 46 47 48 49 50
000
ASUS44 KLCH 040010
RWRLCH
RWRLCH
REGIONAL WEATHER ROUNDUP
NATIONAL WEATHER SERVICE LAKE CHARLES LA
600 PM CST TUE MAR 03 2015

Note: "fair" indicates few or no clouds below 12,000 feet with no
significant weather and/or obstructions to visibility.


ACROSS SOUTHEAST TEXAS

CITY           SKY/WX    TMP DP  RH WIND       PRES   REMARKS
BEAUMONT       CLOUDY    71  67  87 S9        29.92R
BEAUMONT CITY  CLOUDY    71  66  85 S13G20    29.92S
ORANGE         CLOUDY    70  67  91 S8        29.94S
JASPER         PTCLDY    73  64  73 S6        29.92R
$$

ACROSS CENTRAL LOUISIANA

CITY           SKY/WX    TMP DP  RH WIND       PRES   REMARKS
LEESVILLE      CLEAR     72  64  75 S12G18    29.90S
FULLERTON        N/A     74  64  71 VRB5      29.89S
ALEXANDRIA INT CLEAR     73  63  70 S15       29.91R
ESLER FIELD    PTCLDY    75  63  66 S12G17    29.92S
DERIDDER         N/A     73  64  74 S9        29.94S
OAKDALE        MOCLDY    73  66  80 S3        29.93S
OPELOUSAS        N/A     73  67  82 S12       29.95R
$$

ACROSS SOUTHWEST AND SOUTH CENTRAL LOUISIANA

CITY           SKY/WX    TMP DP  RH WIND       PRES   REMARKS
SULPHUR        PTCLDY    72  68  89 S8        29.94R
LAKE CHARLES   CLEAR     72  67  84 S10       29.92S
CHENNAULT INT  NOT AVBL
CAMERON PHI    FOG       63  61  94 SE9       29.96S VSB 0
DEQUINCY       NOT AVBL
JENNINGS         N/A     72  68  87 S8        29.94S
LAFAYETTE      PTCLDY    74  68  81 S10       29.95F
NEW IBERIA     CLEAR     72  68  87 S9        29.97S
ABBEVILLE      NOT AVBL
PATTERSON      PTCLDY    72  68  88 S12       29.98S
SALT POINT       N/A     66  65  96 SE8       29.97S
$$

SELECTED SITES ACROSS THE REGION

CITY           SKY/WX    TMP DP  RH WIND       PRES   REMARKS
HOUSTON BUSH   PTCLDY    75  64  68 S14G21    29.87R
HOUSTON HOBBY  MOCLDY    72  66  81 S14       29.88R
GALVESTON      CLOUDY    64  64 100 SE12      29.90F FOG
COLLEGE STAT   CLOUDY    73  63  70 S12G23    29.84S
CONROE         MOCLDY    75  61  61 S12       29.86S
HUNTSVILLE     CLOUDY    74  63  68 S9        29.85R
LUFKIN         MOCLDY    75  63  66 S10       29.86R
SHREVEPORT     MOCLDY    67  63  87 SE6       29.87S
MONROE         CLEAR     70  63  78 S6        29.91S
NATCHEZ MS     MOCLDY    75  64  69 SW9       29.94S
BATON ROUGE    PTCLDY    72  69  90 S14       29.96F
N.O. INTL ARPT MOCLDY    73  64  73 S14       30.00S
SLIDELL        CLEAR     71  66  84 SE10      30.01R
$$

MARINE REPORTS

STATION/POSITION TIME  TEMP    WIND        PRES    VSBY  WAVE
                       AIR SEA DIR/SP/G                  HT/PER
                 (UTC) (F)     (DEG/KT/KT) (MB)    (MI)  (FT/S)
BUOY 30 S HIGH I 0000   64 61  140/  6/  8 1012.5S         1/ 7
SEA RIM ST PARK  0000   63     150/  5/  7 1013.6R
PORT ARTHUR      0000      58  180/  5/  7 1013.2S
SABINE PASS N    0000   63 55  160/  7/  9 1013.2S
TEXAS POINT      NOT AVBL
CALCASIEU PASS   0000   61 58  150/  8/ 11   N/A
LK CHARLES BEACH 0000   72 60              1013.6R
MARSH ISLAND     2300   66     150/ 10/ 11   N/A           0
FRESH WATER LOCK 0000   67 63  130/  6/  8 1014.4F
AMERADA PASS     0000   69 51  150/  5/  8 1015.2S
$$



USA.gov is the U.S. government's official web portal to all federal, state and local government web resources and services.